Hourly Data Report for February 26, 2021

TORONTO CITY
ONTARIO
Current Station Operator: ECCC - MSC

43°40'00.000" N
79°24'00.000" W
112.50 m
6158355
71508
XTO

Download Data

Hourly Data (February 2021)
Hourly Data Report for February 26, 2021
TIME
LST
Temp Definition
°C
Dew Point Definition
°C
Rel Hum Definition
%
Precip. Amount Definition
mm

Wind Dir Definition
10's deg

Wind Spd Definition
km/h
Visibility Definition
km
Stn Press Definition
kPa
Hmdx Definition


Wind Chill Definition


Weather Definition


00:00 -0.2 -5.5 67 0.0       101.09     LegendNANA
01:00 -0.5 -5.5 69 0.0       101.16     LegendNANA
02:00 -1.2 -6.5 67 0.0       101.20     LegendNANA
03:00 -1.6 -8.0 61 0.0       101.25     LegendNANA
04:00 -2.3 -8.9 61 0.0       101.34     LegendNANA
05:00 -2.7 -8.7 63 0.0       101.41     LegendNANA
06:00 -3.0 -8.7 65 0.0       101.46     LegendNANA
07:00 -3.3 -7.8 71 0.0       101.56     LegendNANA
08:00 -2.7 -7.6 69 0.0       101.55     LegendNANA
09:00 -0.5 -7.5 59 0.0       101.50     LegendNANA
10:00 1.0 -7.7 52 0.0       101.48     LegendNANA
11:00 0.8 -4.6 67 0.0       101.44     LegendNANA
12:00 2.1 -6.3 54 0.0       101.58     LegendNANA
13:00 1.9 -8.1 47 0.0       101.57     LegendNANA
14:00 2.7 -8.2 45 0.0       101.48     LegendNANA
15:00 2.0 -6.3 54 0.0       101.44     LegendNANA
16:00 2.0 -6.5 54 0.0       101.24     LegendNANA
17:00 1.6 -5.7 58 0.0       101.10     LegendNANA
18:00 1.1 -4.5 66 0.0       101.10     LegendNANA
19:00 1.3 -3.3 72 0.0       101.05     LegendNANA
20:00 1.5 -3.3 71 0.0       100.94     LegendNANA
21:00 1.4 -3.3 71 0.0       100.88     LegendNANA
22:00 1.7 -4.4 64 0.0       100.75     LegendNANA
23:00 1.4 -3.9 68 0.0       100.62     LegendNANA

Notes on Data Quality.

Legend

  • E = Estimated
  • M = Missing
  • NA = Not Available*
  • [empty] = Indicates an unobserved value
Date modified: